Location: Choisy
(48.7685°N, 2.4187°E)
Time: 21:55:38
(UTC+00:00)

ATLAS 3B R/B - Pass Details

Date: 29 May 2022
Orbit: 976 x 1218 km, 63.8° (Epoch: 20 June)

Event Time Altitude Azimuth Distance (km) Brightness Sun altitude
Rises 20:25:29 0° 318° (NW) 3,929 8.4 -6.3°
Reaches altitude 10° 20:28:08 10° 321° (NW) 3,003 6.8 -6.7°
Maximum altitude 20:35:19 68° 44° (NE) 1,251 3.1 -7.5°
Drops below altitude 10° 20:42:50 10° 128° (SE) 3,137 4.5 -8.3°
Enters shadow 20:43:00 - 128° (SE) 3,193 4.5 -8.4°
